Orbital Elements at Epoch 2459200.5 (2020-Dec-17.0) TDB
Reference: JPL 32 (heliocentric ecliptic J2000)
Element | Value | Uncertainty (1-sigma) | Units |
e | .2750908056406883 | 1.675e-08 | |
a | 2.336881508842859 | 7.2742e-09 | au |
q | 1.694026891888449 | 3.8153e-08 | au |
i | 11.18197648557155 | 3.0964e-07 | deg |
node | 331.0653630443655 | 5.0209e-06 | deg |
peri | 10.17841098655338 | 6.4105e-06 | deg |
M | 129.2991393237436 | 3.3903e-06 | deg |
tp | 2458731.852183080297 (2019-Sep-05.35218308) | 1.2012e-05 | TDB |
period | 1304.828593395838 3.57 | 6.0925e-06 1.668e-08 | d yr |
n | .2758983071202433 | 1.2882e-09 | deg/d |
Q | 2.979736125797268 | 9.2753e-09 | au |
|
| | Orbit Determination Parameters
Additional Information
|